This demonstration page uses our WeatherBlox Daily Observations layout. Learn more.

Left ArrowRight Arrow

Hourly Observations for December 31, 2018

Temp ( °F °C ) Dew Point ( °F °C ) Humidity (%) Winds ( mph kmh ) Pressure ( in mb ) Visibility ( mi km ) Precip ( " mm )
6:30 am 06:30 Cloudy with Light Rain 41 5 39 4 93 93 ESE 5 7 29.94 1014 4 6 N/A
6:50 am 06:50 Cloudy with Light Rain 41 5 39 4 93 93 SE 3 6 29.94 1014 4 6 N/A
7:49 am 07:49 Cloudy with Light Rain 41 5 39 4 93 93 N N/A 29.91 1013 4 6 N/A
8:25 am 08:25 Cloudy with Light Rain 41 5 39 4 93 93 ENE 5 7 29.91 1013 2 3 N/A
8:47 am 08:47 Cloudy with Light Rain 41 5 39 4 93 93 ENE 5 7 29.91 1013 2 2 N/A
9:57 am 09:57 Cloudy with Light Rain 45 7 43 6 93 93 SE 8 13 29.80 1009 2 2 N/A
10:06 am 10:06 Cloudy with Light Rain 46 8 45 7 93 93 SE 8 13 29.80 1009 3 4 N/A
10:50 am 10:50 Cloudy with Light Rain 48 9 46 8 94 94 SSE 8 13 29.77 1008 3 5 N/A
11:08 am 11:08 Cloudy with Light Rain 50 10 48 9 94 94 SSE 9 15 29.77 1008 2 3 N/A
11:26 am 11:26 Cloudy with Light Rain 50 10 48 9 94 94 SSE 10 17 29.74 1007 3 5 N/A
11:48 am 11:48 Cloudy with Light Rain 52 11 48 9 88 88 SSE 9 15 29.71 1006 3 4 N/A
12:38 pm 12:38 Cloudy with Light Rain 52 11 50 10 94 94 SSE 15 24 29.65 1004 7 11 N/A
12:48 pm 12:48 Cloudy with Light Rain 54 12 50 10 88 88 SSE 14 22 29.65 1004 7 11 N/A
1:03 pm 13:03 Cloudy with Light Rain 54 12 50 10 88 88 S 13 20 29.62 1003 1 2 N/A
1:48 pm 13:48 Cloudy with Light Rain 54 12 52 11 94 94 S 13 20 29.62 1003 3 5 N/A
1:57 pm 13:57 Cloudy with Light Rain 55 13 54 12 94 94 S 15 24 29.59 1002 5 8 N/A
2:45 pm 14:45 Cloudy with Light Rain 57 14 55 13 94 94 S 16 26 29.53 1000 4 6 N/A
3:45 pm 15:45 Cloudy with Light Rain 59 15 57 14 94 94 SW 21 33 29.56 1001 3 5 N/A
4:59 pm 16:59 Cloudy 59 15 55 13 88 88 S 14 22 29.53 1000 10 16 N/A
5:45 pm 17:45 Cloudy 59 15 54 12 82 82 SSW 16 26 29.53 1000 10 16 N/A
6:45 pm 18:45 Cloudy 59 15 52 11 77 77 SSW 21 33 29.59 1002 10 16 N/A
7:45 pm 19:45 Cloudy 59 15 48 9 68 68 WSW 28 44 29.65 1004 10 16 N/A
8:45 pm 20:45 Cloudy 55 13 46 8 72 72 WSW 28 44 29.71 1006 10 16 N/A
9:45 pm 21:45 Cloudy 50 10 39 4 67 67 WSW 28 44 29.80 1009 10 16 N/A

Powered by AerisWeather